KD2RHT-13 Weather Reports


Display with metric or nautical units.
time (UTC)temp
F
wind
direction
speed
MPH
gust
MPH
rain 1hr
in
rain 24hr
in
rain mn
in
humidity
%
barometer
mb
20260905000236 70 160 0.0 0.0 0.00 0.00 0.00 81 1014.5
20260904235731 70 165 0.0 0.0 0.00 0.00 0.00 82 1014.5
20260904235226 70 162 0.0 0.0 0.00 0.00 0.00 81 1014.9
20260904234720 70 158 0.0 0.0 0.00 0.00 0.00 81 1014.9
20260904234216 70 161 0.0 0.0 0.00 0.00 0.00 82 1014.5
20260904233712 70 160 0.0 0.0 0.00 0.00 0.00 81 1014.5
20260904233208 70 160 0.0 0.0 0.00 0.00 0.00 80 1014.5
20260904232704 70 161 0.0 0.0 0.00 0.00 0.00 80 1014.5
20260904232201 71 161 0.0 0.0 0.00 0.00 0.00 79 1014.5
20260904231656 71 164 0.0 0.0 0.00 0.00 0.00 79 1014.5
20260904231151 72 162 0.0 0.0 0.00 0.00 0.00 77 1014.2
20260904230650 72 156 0.0 0.0 0.00 0.00 0.00 76 1014.5
20260904230145 72 162 0.0 0.0 0.00 0.00 0.00 75 1014.2
20260904225643 73 211 0.0 1.0 0.00 0.00 0.00 74 1014.2
20260904225138 73 128 0.0 1.0 0.00 0.00 0.00 74 1014.5
20260904224632 73 157 1.0 1.0 0.00 0.00 0.00 74 1014.2
20260904224127 73 261 4.0 6.0 0.00 0.00 0.00 72 1014.2
20260904223626 74 273 2.0 2.0 0.00 0.00 0.00 72 1014.2
20260904223122 74 314 3.0 5.0 0.00 0.00 0.00 71 1014.2
20260904222618 74 169 1.0 1.0 0.00 0.00 0.00 72 1014.5
20260904222113 74 118 2.0 3.0 0.00 0.00 0.00 71 1014.2
20260904221613 74 299 3.0 5.0 0.00 0.00 0.00 70 1014.5
20260904221113 74 165 1.0 2.0 0.00 0.00 0.00 70 1014.2
20260904220608 75 321 3.0 3.0 0.00 0.00 0.00 70 1014.2
20260904215558 75 308 5.0 6.0 0.00 0.00 0.00 68 1014.5
20260904215054 75 164 1.0 1.0 0.00 0.00 0.00 70 1014.2
20260904214549 75 158 0.0 1.0 0.00 0.00 0.00 69 1014.5
20260904214045 75 158 0.0 0.0 0.00 0.00 0.00 69 1014.2
20260904213543 75 322 3.0 5.0 0.00 0.00 0.00 69 1014.2
20260904213040 75 265 3.0 5.0 0.00 0.00 0.00 68 1014.2
20260904212539 75 169 0.0 1.0 0.00 0.00 0.00 68 1014.5
20260904212034 76 178 1.0 1.0 0.00 0.00 0.00 67 1014.2
20260904211534 76 124 1.0 2.0 0.00 0.00 0.00 67 1014.2
20260904211030 75 284 3.0 5.0 0.00 0.00 0.00 67 1014.5
20260904210528 75 162 3.0 8.0 0.00 0.00 0.00 66 1014.5
20260904210025 76 322 4.0 8.0 0.00 0.00 0.00 67 1014.5
20260904205520 75 68 3.0 3.0 0.00 0.00 0.00 69 1014.5
20260904205017 76 274 3.0 5.0 0.00 0.00 0.00 67 1014.9
20260904204512 76 172 2.0 5.0 0.00 0.00 0.00 68 1014.9
20260904204008 76 314 2.0 5.0 0.00 0.00 0.00 68 1014.5
20260904203504 76 273 1.0 1.0 0.00 0.00 0.00 68 1014.5
20260904203000 76 272 4.0 5.0 0.00 0.00 0.00 68 1014.5
20260904202456 77 296 9.0 10.0 0.00 0.00 0.00 67 1014.9
20260904201952 77 136 2.0 3.0 0.00 0.00 0.00 69 1014.9
20260904201451 77 179 1.0 2.0 0.00 0.00 0.00 68 1014.9
20260904200947 77 273 2.0 2.0 0.00 0.00 0.00 68 1014.9
20260904200445 78 339 5.0 6.0 0.00 0.00 0.00 66 1014.9
20260904195941 77 189 2.0 2.0 0.00 0.00 0.00 69 1014.9
20260904195438 77 191 3.0 3.0 0.00 0.00 0.00 67 1014.9
20260904194938 78 234 3.0 3.0 0.00 0.00 0.00 67 1014.9
20260904194433 78 51 6.0 8.0 0.00 0.00 0.00 66 1014.9
20260904193928 78 230 4.0 6.0 0.00 0.00 0.00 66 1015.2
20260904193423 79 285 4.0 6.0 0.00 0.00 0.00 65 1015.2
20260904192920 80 155 3.0 5.0 0.00 0.00 0.00 64 1015.2
20260904192420 78 333 5.0 7.0 0.00 0.00 0.00 65 1015.2
20260904191916 78 236 3.0 3.0 0.00 0.00 0.00 65 1015.2
20260904191412 80 28 5.0 6.0 0.00 0.00 0.00 64 1015.2
20260904190909 81 185 2.0 3.0 0.00 0.00 0.00 62 1015.2
20260904190404 81 309 3.0 6.0 0.00 0.00 0.00 63 1015.2
20260904185900 81 347 4.0 6.0 0.00 0.00 0.00 65 1015.2
20260904185355 81 155 1.0 1.0 0.00 0.00 0.00 66 1015.2
20260904184855 81 300 3.0 3.0 0.00 0.00 0.00 64 1015.6
20260904184350 80 151 2.0 2.0 0.00 0.00 0.00 67 1015.6
20260904183845 78 8 5.0 6.0 0.00 0.00 0.00 65 1015.6
20260904183340 79 333 3.0 3.0 0.00 0.00 0.00 64 1015.2
20260904182836 78 331 2.0 3.0 0.00 0.00 0.00 66 1015.6
20260904182331 79 44 5.0 7.0 0.00 0.00 0.00 63 1015.2
20260904181826 80 152 1.0 1.0 0.00 0.00 0.00 64 1015.2
20260904181326 80 275 3.0 3.0 0.00 0.00 0.00 62 1015.6
20260904180822 79 161 0.0 1.0 0.00 0.00 0.00 66 1015.2
20260904180317 78 259 5.0 6.0 0.00 0.00 0.00 64 1015.6
20260904175816 77 196 3.0 5.0 0.00 0.00 0.00 69 1015.2
20260904175315 80 294 6.0 7.0 0.00 0.00 0.00 65 1015.6
20260904174815 81 297 3.0 5.0 0.00 0.00 0.00 65 1015.9
20260904174311 79 290 2.0 5.0 0.00 0.00 0.00 67 1015.9
20260904173807 78 202 3.0 3.0 0.00 0.00 0.00 68 1015.6
20260904173301 78 179 1.0 2.0 0.00 0.00 0.00 68 1015.6
20260904172758 79 238 5.0 6.0 0.00 0.00 0.00 66 1015.6
20260904172256 77 317 2.0 2.0 0.00 0.00 0.00 69 1015.6
20260904171752 78 160 1.0 2.0 0.00 0.00 0.00 68 1015.6
20260904171247 79 310 5.0 7.0 0.00 0.00 0.00 64 1015.9
20260904170743 80 298 3.0 5.0 0.00 0.00 0.00 68 1015.9
20260904170239 79 230 4.0 6.0 0.00 0.00 0.00 65 1015.9
20260904165738 79 148 1.0 2.0 0.00 0.00 0.00 67 1015.9
20260904165232 79 333 4.0 6.0 0.00 0.00 0.00 67 1015.6
20260904164727 79 223 2.0 2.0 0.00 0.00 0.00 68 1015.9
20260904164222 78 161 1.0 2.0 0.00 0.00 0.00 69 1015.9
20260904163719 78 21 4.0 7.0 0.00 0.00 0.00 67 1015.9
20260904163214 80 198 3.0 5.0 0.00 0.00 0.00 63 1015.9
20260904162712 79 351 2.0 2.0 0.00 0.00 0.00 67 1015.9
20260904162207 80 166 1.0 2.0 0.00 0.00 0.00 68 1015.9
20260904161703 79 176 2.0 2.0 0.00 0.00 0.00 67 1015.9
20260904161158 79 160 2.0 3.0 0.00 0.00 0.00 68 1015.9
20260904160654 80 136 1.0 2.0 0.00 0.00 0.00 67 1015.9
20260904160149 79 273 3.0 3.0 0.00 0.00 0.00 70 1015.9
20260904155644 79 170 3.0 3.0 0.00 0.00 0.00 66 1015.9
20260904155142 80 230 2.0 3.0 0.00 0.00 0.00 67 1015.9
20260904154641 79 145 1.0 2.0 0.00 0.00 0.00 70 1015.9
20260904154136 79 199 1.0 1.0 0.00 0.00 0.00 66 1015.9
20260904153632 79 294 5.0 6.0 0.00 0.00 0.00 68 1015.6
20260904153127 78 321 3.0 7.0 0.00 0.00 0.00 73 1015.9
20260904152623 77 138 2.0 3.0 0.00 0.00 0.00 72 1015.9
20260904152118 78 167 1.0 2.0 0.00 0.00 0.00 73 1015.9
20260904151613 79 198 2.0 2.0 0.00 0.00 0.00 73 1015.6
20260904151112 78 267 2.0 2.0 0.00 0.00 0.00 72 1015.6
20260904150607 75 230 2.0 3.0 0.00 0.00 0.00 74 1015.6
20260904145601 76 144 2.0 2.0 0.00 0.00 0.00 77 1015.6
20260904145056 77 157 2.0 2.0 0.00 0.00 0.00 78 1015.9
20260904144552 77 286 4.0 6.0 0.00 0.00 0.00 76 1015.6
20260904144048 78 131 1.0 2.0 0.00 0.00 0.00 77 1015.9
20260904143543 77 175 2.0 2.0 0.00 0.00 0.00 78 1015.9
20260904143040 76 304 4.0 5.0 0.00 0.00 0.00 75 1015.9
20260904142536 77 317 3.0 3.0 0.00 0.00 0.00 79 1015.6
20260904142026 77 302 4.0 6.0 0.00 0.00 0.00 79 1015.9
20260904141521 77 164 1.0 2.0 0.00 0.00 0.00 80 1015.9
20260904141017 77 141 2.0 3.0 0.00 0.00 0.00 79 1015.9
20260904140516 75 146 0.0 0.0 0.00 0.00 0.00 80 1015.9
20260904140016 75 160 0.0 0.0 0.00 0.00 0.00 83 1015.6
20260904135515 75 152 1.0 2.0 0.00 0.00 0.00 84 1015.9
20260904135012 74 218 1.0 1.0 0.00 0.00 0.00 85 1015.6
20260904134507 74 290 1.0 1.0 0.00 0.00 0.00 87 1015.6
20260904134001 74 145 1.0 1.0 0.00 0.00 0.00 87 1015.9
20260904133456 74 229 1.0 2.0 0.00 0.00 0.00 88 1016.2
20260904132952 73 0 2.0 2.0 0.00 0.00 0.00 89 1016.2
20260904132451 73 132 1.0 2.0 0.00 0.00 0.00 91 1016.2
20260904131946 72 148 0.0 0.0 0.00 0.00 0.00 92 1015.9
20260904131442 71 331 3.0 3.0 0.00 0.00 0.00 94 1015.9
20260904130937 71 338 4.0 5.0 0.00 0.00 0.00 94 1015.6
20260904130436 71 140 1.0 1.0 0.00 0.00 0.00 95 1015.9
20260904125931 71 312 2.0 3.0 0.00 0.00 0.00 96 1015.6
20260904125428 70 160 1.0 2.0 0.00 0.00 0.00 96 1015.6
20260904124926 70 250 3.0 3.0 0.00 0.00 0.00 96 1015.2
20260904124423 70 314 2.0 5.0 0.00 0.00 0.00 96 1015.9
20260904123918 70 150 0.0 0.0 0.00 0.00 0.00 96 1015.9
20260904123418 70 155 0.0 0.0 0.00 0.00 0.00 96 1015.9
20260904122914 70 316 4.0 6.0 0.00 0.00 0.00 96 1016.2
20260904122413 69 160 0.0 0.0 0.00 0.00 0.00 96 1015.9
20260904121908 69 154 0.0 0.0 0.00 0.00 0.00 96 1015.9
20260904121404 69 149 0.0 1.0 0.00 0.00 0.00 95 1015.9
20260904120900 69 157 1.0 1.0 0.00 0.00 0.00 96 1015.9
20260904120356 69 171 0.0 0.0 0.00 0.00 0.00 95 1015.9
20260904115852 69 152 0.0 0.0 0.00 0.00 0.00 97 1015.9
20260904115347 68 161 0.0 0.0 0.00 0.00 0.00 98 1015.9
20260904114847 67 163 0.0 0.0 0.00 0.00 0.00 99 1016.2
20260904114341 67 135 0.0 0.0 0.00 0.00 0.00 99 1015.9
20260904113837 66 146 0.0 0.0 0.00 0.00 0.00 99 1015.9
20260904113336 66 157 0.0 0.0 0.00 0.00 0.00 99 1015.9
20260904112831 65 157 0.0 0.0 0.00 0.00 0.00 99 1015.9
20260904112326 65 155 0.0 0.0 0.00 0.00 0.00 99 1015.9
20260904111822 64 166 0.0 0.0 0.00 0.00 0.00 99 1015.9
20260904111318 64 158 0.0 0.0 0.00 0.00 0.00 99 1015.9
20260904110813 64 162 0.0 0.0 0.00 0.00 0.00 99 1015.6
20260904110312 64 163 0.0 0.0 0.00 0.00 0.00 99 1015.6
20260904105807 64 161 0.0 0.0 0.00 0.00 0.00 99 1015.6
20260904105305 64 176 0.0 0.0 0.00 0.00 0.00 99 1015.6
20260904104757 64 160 0.0 0.0 0.00 0.00 0.00 99 1015.6
20260904104253 64 155 0.0 0.0 0.00 0.00 0.00 99 1015.2
20260904103750 64 178 0.0 0.0 0.00 0.00 0.00 99 1015.2
20260904103249 64 159 0.0 0.0 0.00 0.00 0.00 99 1015.6
20260904102745 64 161 0.0 0.0 0.00 0.00 0.00 99 1015.2
20260904102241 64 160 0.0 0.0 0.00 0.00 0.00 99 1015.2
20260904101737 64 157 0.0 0.0 0.00 0.00 0.00 99 1015.2
20260904101233 64 153 0.0 0.0 0.00 0.00 0.00 99 1015.2
20260904100728 64 157 0.0 0.0 0.00 0.00 0.00 99 1015.2
20260904100224 64 155 0.0 0.0 0.00 0.00 0.00 99 1014.9
20260904095724 64 162 0.0 0.0 0.00 0.00 0.00 99 1014.9
20260904095218 64 159 0.0 0.0 0.00 0.00 0.00 99 1014.9
20260904094714 64 153 0.0 0.0 0.00 0.00 0.00 99 1014.9
20260904094213 64 157 0.0 0.0 0.00 0.00 0.00 99 1014.9
20260904093710 64 156 0.0 0.0 0.00 0.00 0.00 99 1014.9
20260904093209 64 164 0.0 0.0 0.00 0.00 0.00 99 1014.9
20260904092705 64 156 0.0 0.0 0.00 0.00 0.00 99 1014.5
20260904092201 64 160 0.0 0.0 0.00 0.00 0.00 99 1014.9
20260904091657 64 157 0.0 0.0 0.00 0.00 0.00 99 1014.9
20260904091152 65 160 0.0 0.0 0.00 0.00 0.00 99 1014.9
20260904090648 65 158 0.0 0.0 0.00 0.00 0.00 99 1014.5
20260904090143 65 160 0.0 0.0 0.00 0.00 0.00 99 1014.9
20260904085638 65 162 0.0 0.0 0.00 0.00 0.00 99 1014.5
20260904085137 65 164 0.0 0.0 0.00 0.00 0.00 99 1014.5
20260904084633 65 160 0.0 0.0 0.00 0.00 0.00 99 1014.5
20260904084129 65 159 0.0 0.0 0.00 0.00 0.00 99 1014.5
20260904083625 66 146 0.0 0.0 0.00 0.00 0.00 99 1014.5
20260904083121 66 160 0.0 0.0 0.00 0.00 0.00 99 1014.5
20260904082616 66 164 0.0 0.0 0.00 0.00 0.00 99 1014.2
20260904082111 66 160 0.0 0.0 0.00 0.00 0.00 99 1014.5
20260904081606 67 160 0.0 0.0 0.00 0.00 0.00 99 1014.2
20260904081101 67 155 0.0 0.0 0.00 0.00 0.00 99 1014.2
20260904080557 67 162 0.0 0.0 0.00 0.00 0.00 99 1014.2
20260904080053 67 164 0.0 0.0 0.00 0.00 0.00 99 1013.9
20260904075549 68 160 0.0 0.0 0.00 0.00 0.00 99 1013.9
20260904075043 68 161 0.0 0.0 0.00 0.00 0.00 99 1013.9
20260904074542 68 205 0.0 1.0 0.00 0.00 0.00 99 1014.2
20260904074037 67 252 1.0 2.0 0.00 0.00 0.00 99 1013.9
20260904073532 67 263 2.0 2.0 0.00 0.00 0.00 99 1014.2
20260904073029 67 168 0.0 0.0 0.00 0.00 0.00 99 1013.9
20260904072524 67 166 0.0 0.0 0.00 0.00 0.00 99 1013.9
20260904072019 67 183 1.0 1.0 0.00 0.00 0.00 99 1013.9
20260904071515 68 164 0.0 0.0 0.00 0.00 0.00 99 1013.9
20260904071010 67 164 1.0 1.0 0.00 0.00 0.00 99 1013.9
20260904070508 67 237 1.0 1.0 0.00 0.00 0.00 99 1013.9
20260904070003 67 164 0.0 0.0 0.00 0.00 0.00 99 1013.9
20260904065459 67 203 0.0 1.0 0.00 0.00 0.00 99 1013.9
20260904064954 67 158 0.0 0.0 0.00 0.00 0.00 99 1013.9
20260904064450 67 162 0.0 0.0 0.00 0.00 0.00 99 1013.9
20260904063945 67 163 0.0 0.0 0.00 0.00 0.00 99 1013.5
20260904063442 67 162 0.0 0.0 0.00 0.00 0.00 99 1014.2
20260904062936 67 164 0.0 0.0 0.00 0.00 0.00 99 1014.2
20260904062432 67 162 0.0 0.0 0.00 0.00 0.00 99 1014.2
20260904061928 68 162 0.0 0.0 0.00 0.00 0.00 99 1014.2
20260904061424 68 162 0.0 0.0 0.00 0.00 0.00 99 1014.2
20260904060920 68 162 0.0 0.0 0.00 0.00 0.00 99 1013.9
20260904060416 68 162 0.0 0.0 0.00 0.00 0.00 99 1014.5
20260904055911 68 165 0.0 0.0 0.00 0.00 0.00 99 1014.2
20260904055407 68 162 0.0 0.0 0.00 0.00 0.00 99 1014.5
20260904054902 68 163 0.0 0.0 0.00 0.00 0.00 99 1014.5
20260904054358 68 162 0.0 0.0 0.00 0.00 0.00 99 1014.5
20260904053853 68 162 0.0 0.0 0.00 0.00 0.00 99 1014.5
20260904053352 68 162 0.0 0.0 0.00 0.00 0.00 99 1014.5
20260904052848 69 162 0.0 0.0 0.00 0.00 0.00 99 1014.2
20260904052345 69 162 0.0 0.0 0.00 0.00 0.00 99 1014.5
20260904051841 69 163 0.0 0.0 0.00 0.00 0.00 99 1014.5
20260904051337 69 165 0.0 0.0 0.00 0.00 0.00 99 1014.5
20260904050836 69 162 0.0 0.0 0.00 0.00 0.00 99 1014.5
20260904050334 69 162 0.0 0.0 0.00 0.00 0.00 99 1014.5
20260904045833 69 162 0.0 0.0 0.00 0.00 0.00 99 1014.5
20260904045329 69 168 0.0 0.0 0.00 0.00 0.00 99 1014.5
20260904044828 69 162 0.0 0.0 0.00 0.00 0.00 99 1014.5
20260904044325 69 162 0.0 0.0 0.00 0.00 0.00 99 1014.5
20260904043821 69 162 0.0 0.0 0.00 0.00 0.00 99 1014.5
20260904043317 69 162 0.0 0.0 0.00 0.00 0.00 99 1014.9
20260904042812 69 162 0.0 0.0 0.00 0.00 0.00 99 1014.5
20260904042308 69 162 0.0 0.0 0.00 0.00 0.00 99 1014.2
20260904041808 69 162 0.0 0.0 0.00 0.00 0.00 99 1014.2
20260904041304 69 162 0.0 0.0 0.00 0.00 0.00 99 1014.5
20260904040800 69 162 0.0 0.0 0.00 0.00 0.00 99 1014.5
20260904040255 69 162 0.0 0.0 0.00 0.00 0.00 99 1014.5
20260904035751 69 162 0.0 0.0 0.00 0.00 0.00 99 1014.2
20260904035247 69 162 0.0 0.0 0.00 0.00 0.00 99 1014.5
20260904034745 70 162 0.0 0.0 0.00 0.00 0.00 99 1014.2
20260904034241 69 162 0.0 0.0 0.00 0.00 0.00 99 1014.5
20260904033737 70 162 0.0 0.0 0.00 0.00 0.00 99 1014.2
20260904033234 69 162 0.0 0.0 0.00 0.00 0.00 99 1014.5
20260904032730 69 162 0.0 0.0 0.00 0.00 0.00 99 1014.5
20260904032228 69 162 0.0 0.0 0.00 0.00 0.00 98 1014.2
20260904031723 70 162 0.0 0.0 0.00 0.00 0.00 98 1014.5
20260904031219 70 162 0.0 0.0 0.00 0.00 0.00 98 1014.5
20260904030714 70 162 0.0 0.0 0.00 0.00 0.00 97 1014.5
20260904030209 70 162 0.0 0.0 0.00 0.00 0.00 97 1014.5
20260904025706 70 165 0.0 0.0 0.00 0.00 0.00 97 1014.5
20260904025201 70 162 0.0 0.0 0.00 0.00 0.00 97 1014.5
20260904024656 70 162 0.0 0.0 0.00 0.00 0.00 97 1014.5
20260904024151 70 162 0.0 0.0 0.00 0.00 0.00 97 1014.5
20260904023648 70 162 0.0 0.0 0.00 0.00 0.00 97 1014.5
20260904023143 70 162 0.0 0.0 0.00 0.00 0.00 96 1014.2
20260904022643 70 162 0.0 0.0 0.00 0.00 0.00 96 1014.5
20260904022140 70 162 0.0 0.0 0.00 0.00 0.00 96 1014.9
20260904021636 70 162 0.0 0.0 0.00 0.00 0.00 96 1014.9
20260904021130 70 173 0.0 0.0 0.00 0.00 0.00 96 1014.5
20260904020627 70 158 0.0 0.0 0.00 0.00 0.00 95 1014.9
20260904020120 70 162 0.0 0.0 0.00 0.00 0.00 95 1014.9
20260904015615 71 162 0.0 0.0 0.00 0.00 0.00 95 1014.9
20260904015114 71 163 0.0 0.0 0.00 0.00 0.00 94 1015.2
20260904014608 71 165 0.0 0.0 0.00 0.00 0.00 94 1014.5
20260904014103 71 162 0.0 0.0 0.00 0.00 0.00 94 1014.9
20260904013600 71 163 0.0 0.0 0.00 0.00 0.00 93 1014.9
20260904013056 72 163 0.0 0.0 0.00 0.00 0.00 93 1014.9
20260904012556 72 164 0.0 0.0 0.00 0.00 0.00 92 1014.5
20260904012050 72 156 0.0 0.0 0.00 0.00 0.00 92 1014.2
20260904011549 72 158 0.0 0.0 0.00 0.00 0.00 91 1014.5
20260904011045 72 147 0.0 0.0 0.00 0.00 0.00 91 1014.5
20260904010541 72 158 0.0 0.0 0.00 0.00 0.00 90 1014.9
20260904010037 72 158 0.0 0.0 0.00 0.00 0.00 90 1014.9
20260904005537 72 159 0.0 0.0 0.00 0.00 0.00 90 1014.5
20260904005032 72 161 0.0 0.0 0.00 0.00 0.00 89 1015.2
20260904004528 72 162 0.0 0.0 0.00 0.00 0.00 89 1014.5
20260904004023 73 162 0.0 0.0 0.00 0.00 0.00 89 1014.9
20260904003519 73 163 0.0 0.0 0.00 0.00 0.00 89 1014.5
20260904003014 73 160 0.0 0.0 0.00 0.00 0.00 88 1014.9
20260904002510 73 159 0.0 0.0 0.00 0.00 0.00 87 1014.5
20260904002009 73 159 0.0 0.0 0.00 0.00 0.00 86 1014.9
20260904001505 73 158 0.0 0.0 0.00 0.00 0.00 86 1014.5
20260904001005 73 162 0.0 0.0 0.00 0.00 0.00 85 1014.5
20260904000504 74 162 0.0 0.0 0.00 0.00 0.00 84 1014.5